TRA5T LOWS-EHAM

Flight info

Callsign TRA5T
Flight time N/A
Altitude 36000
Route INROM DCT SIMBA Y700 NENUM DCT EPTEU L604 RODIS DCT GASKA DCT MASEK DCT MAPOX DCT NORKU
Aircraft A21N/M-SDE2E3FGHIJ1RWXYZ/LB1

Departure

Time 2026-05-05 09:16
Airport Salzburg Airport (LOWS)

Arrival

Time N/A
Airport Amsterdam Airport Schiphol (EHAM)
Time Latitude Longitude Altitude Speed Heading
2026-05-05 08:57 47.79089 12.99971 1425 ft 0 kts 282°
2026-05-05 09:09 47.79087 12.99983 1425 ft 4 kts 282°
2026-05-05 09:09 47.79082 13.00022 1425 ft 4 kts 284°
2026-05-05 09:09 47.79074 13.00060 1425 ft 5 kts 295°
2026-05-05 09:10 47.79059 13.00090 1425 ft 4 kts 332°
2026-05-05 09:10 47.79055 13.00093 1425 ft 1 kts 336°
2026-05-05 09:12 47.79115 13.00055 1425 ft 14 kts 337°
2026-05-05 09:12 47.79212 12.99994 1425 ft 16 kts 337°
2026-05-05 09:12 47.79320 12.99964 1425 ft 18 kts 45°
2026-05-05 09:13 47.79405 13.00074 1425 ft 18 kts 358°
2026-05-05 09:13 47.79525 13.00004 1426 ft 19 kts 337°
2026-05-05 09:13 47.79654 12.99924 1425 ft 21 kts 337°
2026-05-05 09:13 47.79791 12.99840 1426 ft 22 kts 337°
2026-05-05 09:14 47.79935 12.99750 1426 ft 23 kts 334°
2026-05-05 09:14 47.80083 12.99652 1426 ft 23 kts 337°
2026-05-05 09:14 47.80201 12.99594 1426 ft 15 kts
2026-05-05 09:14 47.80281 12.99689 1427 ft 17 kts 68°
2026-05-05 09:15 47.80219 12.99837 1426 ft 36 kts 158°
2026-05-05 09:15 47.79710 13.00153 1427 ft 120 kts 157°
2026-05-05 09:15 47.78707 13.00785 1430 ft 194 kts 158°
2026-05-05 09:15 47.77307 13.01647 2004 ft 236 kts 157°
2026-05-05 09:16 47.75840 13.02965 3052 ft 255 kts 142°
2026-05-05 09:16 47.74626 13.04958 4161 ft 269 kts 115°
2026-05-05 09:16 47.74273 13.07681 5475 ft 277 kts 86°
2026-05-05 09:16 47.74896 13.10439 6632 ft 293 kts 56°
2026-05-05 09:17 47.76417 13.12531 7753 ft 308 kts 29°
2026-05-05 09:17 47.78426 13.13819 8976 ft 323 kts 15°
2026-05-05 09:17 47.80691 13.14486 10162 ft 340 kts
2026-05-05 09:17 47.83157 13.15023 10741 ft 379 kts
2026-05-05 09:18 47.85861 13.15583 11707 ft 403 kts
2026-05-05 09:18 47.88649 13.16178 12760 ft 405 kts
2026-05-05 09:18 47.91464 13.16808 13811 ft 412 kts
2026-05-05 09:18 47.94320 13.17459 14754 ft 418 kts
2026-05-05 09:19 47.97218 13.18125 15699 ft 424 kts
2026-05-05 09:19 48.00174 13.18422 16617 ft 432 kts 355°
2026-05-05 09:19 48.03110 13.17529 17529 ft 433 kts 338°
2026-05-05 09:19 48.05834 13.15580 18427 ft 436 kts 330°
2026-05-05 09:20 48.08499 13.13375 19232 ft 441 kts 329°
2026-05-05 09:20 48.11125 13.11201 20029 ft 445 kts 329°